STARLINK-6239, 56423

Orbit data source: Space-Track

STARLINK-6239, 56423 is a payload satellite owned by SpaceX/Seattle (US) in LEO that was launched on Thu, 04 May 2023 UTC via an FALCON 9 launch vehicle from the Air Force Eastern Test Range (AFETR). Payload-class satellites include a variety of spacecraft equipped with specific instruments for various scientific and technological missions. These include communications satellites like Starlink; space stations such as the ISS; scientific satellites like the Hubble; Earth observation satellites from companies like Planet Labs, Umbra, and HawkEye 360; GPS; miniature CubeSats for education and research; and military/defense satellites.

Loading next visibility...
Identifier
56423, 2023-061BB
Orbit
LEO
Country
Flag of USUS
Related business
Manufacturer
SpaceX/Seattle
Mission
Operational Commercial Communications
Bus & Motor
STARLINK, Unknown motor
Mass
305 kg wet, ~290 kg dry
Launch date (UTC)
2023-05-04 (3 years ago)
Launch vehicle
FALCON 9
Launch site
Air Force Eastern Test Range (AFETR)
Object type
Payload
Rocket body
Debris
Shape & HBR
Box + 1 Pan, 10.1 m
Radar Cross Section
11.087 m², Large (>1 m²)

Expand to show TLE details & history
Last TLE update: 3 days ago

TLE from 3 days ago
0 STARLINK-6239
1 56423U 23061BB  26170.78359604  .00000769  00000-0  37452-4 0  9997
2 56423  43.0018 322.9782 0001256 270.5279  89.5429 15.27579355172575
Epoch: 2026-06-19T18:48Z
TLE epoch observation values (Epoch: 2026-06-19T18:48:22.697Z)
Latitude
-0.00002°
Longitude
132.876°
Altitude
482.82 km
Speed
7.626 km/s
True Right ascension
21h 31m 54s
True Declination
0° 00' 00"
Sunlit
Object was in full shadow at epoch
Visualization orbit readout
Latitude
Unknown
Longitude
Unknown
Altitude
Unknown
Speed
Unknown
Apparent Right ascension
Unknown
Apparent Declination
Unknown
Sunlit
N/A
Visualization observer readout
Local Sidereal Time
21:32:55
Azimuth
Unknown
Elevation
Unknown
Doppler factor
Unknown
Orbital elements
Apogee altitude
485.858 km
Perigee altitude
484.134 km
Semi-major axis
6,863.133 km
Eccentricity
0.00013
Inclination
43.0018°
RAAN
322.9782°
Arg. of periapsis
270.5279°
True anomaly
89.55729°
Mean anomaly
89.5429°
Eccentric anomaly
89.5501°
Mean motion
3.81733 °/min
Orbital period
94.31 mins
BSTAR
0.000037452
Loading maneuver chart data...
Computing Atmospheric mass density...
Loading historical data...
Loading historical data...
Loading historical data...
Loading historical data...
Loading historical data...
Loading historical data...
Loading historical data...

Documentation

Showing up to 5 results
|